Weather History for Honolulu, HI

Change the Weather History Date:

Wednesday, August 13, 2014

  Actual Average Record
Temperature  
Mean Temperature 83 °F 82 °F  
Max Temperature 89 °F 89 °F 93 °F (1994)
Min Temperature 76 °F 75 °F 69 °F (1997)
Degree Days  
Heating Degree Days 0 0  
Month to date heating degree days 0 0  
Since 1 June heating degree days 0 0  
Since 1 July heating degree days 0 0  
Cooling Degree Days 18 17  
Month to date cooling degree days 231 221  
Year to date cooling degree days 2843 2681  
Since 1 June cooling degree days 1234 1179  
Growing Degree Days 32 (Base 50)    
Moisture  
Dew Point 68 °F    
Average Humidity 67    
Maximum Humidity 94    
Minimum Humidity 40    
Precipitation  
Precipitation T in 0.02 in 0.10 in (1962)
Month to date precipitation 0.44 0.24  
Year to date precipitation 12.11 8.58  
Snow  
Snow 0.00 in - - ()
Month to date snowfall 0.0  
Since 1 June snowfall 0.0  
Since 1 July snowfall 0.0  
Snow Depth 0.00 in    
Sea Level Pressure  
Sea Level Pressure 29.98 in    
Wind  
Wind Speed 8 mph (NE)    
Max Wind Speed 18 mph    
Max Gust Speed 26 mph    
Visibility 10 miles    
Events Rain    
T = Trace of Precipitation, MM = Missing Value Source: NWS Daily Summary

Daily Weather History Graph

Daily Weather History Graph

Search for Another Location

Airport:

Trip Planner

Search our weather history database for the weather conditions in past years. The results will help you decide how hot, cold, wet, or windy it might be!

Date:

Astronomy

Aug. 13, 2014 Rise Set
Actual Time 6:09 AM HST 7:03 PM HST
Civil Twilight 5:46 AM HST 7:26 PM HST
Nautical Twilight 5:18 AM HST 7:53 PM HST
Astronomical Twilight 4:51 AM HST 8:21 PM HST
Moon 9:32 PM HST (8/13) 9:17 AM HST (8/13)
Length of Visible Light 13h 39m
Length of Day
12h 53m
Waning Gibbous, 86% of the Moon is Illuminated
Aug 13
Waning Gibbous
Aug 17
Last Quarter
Aug 25
New
Sep 2
First Quarter
Sep 8
Full

Hourly Weather History & Observations

Time (HST) Temp. Heat Index Dew Point Humidity Pressure Visibility Wind Dir Wind Speed Gust Speed Precip Events Conditions
12:53 AM 77.0 °F - 73.0 °F 88% 30.01 in 10.0 mi North 3.5 mph - 0.00 in Rain Light Rain
1:53 AM 75.9 °F - 72.0 °F 87% 29.98 in 10.0 mi Calm Calm - N/A   Scattered Clouds
2:53 AM 77.0 °F - 72.0 °F 84% 29.97 in 10.0 mi Calm Calm - N/A   Scattered Clouds
3:53 AM 75.9 °F - 72.0 °F 87% 29.96 in 10.0 mi North 3.5 mph - N/A   Scattered Clouds
4:53 AM 77.0 °F - 69.1 °F 76% 29.96 in 10.0 mi ENE 6.9 mph - N/A   Scattered Clouds
5:53 AM 77.0 °F - 69.1 °F 76% 29.97 in 8.0 mi NE 5.8 mph - N/A   Scattered Clouds
6:53 AM 78.1 °F - 69.1 °F 74% 29.99 in 10.0 mi ENE 4.6 mph - N/A   Scattered Clouds
7:53 AM 81.0 °F 84.1 °F 69.1 °F 67% 29.99 in 10.0 mi NE 9.2 mph - N/A   Scattered Clouds
8:53 AM 82.9 °F 85.4 °F 66.9 °F 58% 30.00 in 10.0 mi ENE 9.2 mph - N/A   Scattered Clouds
9:53 AM 84.9 °F 87.1 °F 66.0 °F 53% 30.00 in 10.0 mi NE 13.8 mph 21.9 mph N/A   Scattered Clouds
10:53 AM 86.0 °F 87.3 °F 64.0 °F 48% 30.00 in 10.0 mi NE 11.5 mph 17.3 mph N/A   Scattered Clouds
11:53 AM 87.1 °F 88.3 °F 64.0 °F 46% 29.99 in 10.0 mi ENE 13.8 mph - N/A   Scattered Clouds
12:53 PM 88.0 °F 87.9 °F 61.0 °F 40% 29.98 in 10.0 mi ENE 12.7 mph 21.9 mph N/A   Scattered Clouds
1:53 PM 87.1 °F 88.3 °F 64.0 °F 46% 29.97 in 10.0 mi NE 15.0 mph 19.6 mph N/A   Scattered Clouds
2:53 PM 87.1 °F 88.9 °F 64.9 °F 48% 29.95 in 10.0 mi East 10.4 mph 18.4 mph N/A   Scattered Clouds
3:53 PM 88.0 °F 89.6 °F 64.9 °F 46% 29.94 in 10.0 mi ENE 15.0 mph - N/A   Scattered Clouds
4:53 PM 86.0 °F 87.6 °F 64.9 °F 49% 29.94 in 10.0 mi ENE 13.8 mph - N/A   Scattered Clouds
6:53 PM 82.0 °F 84.1 °F 66.0 °F 58% 29.95 in 10.0 mi ENE 13.8 mph - N/A   Scattered Clouds
7:53 PM 81.0 °F 83.8 °F 68.0 °F 65% 29.97 in 10.0 mi NE 9.2 mph - N/A   Scattered Clouds
8:53 PM 80.1 °F 82.7 °F 68.0 °F 67% 29.99 in 10.0 mi ENE 10.4 mph - N/A   Partly Cloudy
9:53 PM 80.1 °F 82.7 °F 68.0 °F 67% 30.00 in 10.0 mi ENE 11.5 mph - N/A   Partly Cloudy
10:53 PM 79.0 °F - 66.9 °F 66% 30.00 in 10.0 mi ENE 8.1 mph - N/A   Partly Cloudy
11:53 PM 79.0 °F - 66.9 °F 66% 30.00 in 10.0 mi ENE 5.8 mph - N/A   Partly Cloudy